Hourly Weather Roundup
Issued by NWS Central Illinois

Home | Current Version | Previous Version | Text Only | Print | Product List | Glossary On
Versions: 1 2 3 4 5 6 7 8 9 10 11 12 13 14 15 16 17 18 19 20 21 22 23 24 25 26 27 28 29 30 31 32 33 34 35 36 37 38 39 40 41 42 43 44 45 46 47 48 49 50
000
NZUS43 KILX 281310
HWRILX

AREA WEATHER ROUNDUP
NATIONAL WEATHER SERVICE, LINCOLN IL
700 AM CST FRI NOV 28 2014


CITY           SKY/WX    TMP DP  RH WIND       PRES   REMARKS
BLOOMINGTON    PTCLDY    18  12  77 S8        30.28F WCI   8
CHAMPAIGN      CLOUDY    21  13  71 SE12      30.31F WCI   9
DECATUR        MOCLDY    20  12  71 SE9       30.29F WCI   9
FLORA          MOCLDY    21  19  92 SE5       30.36F WCI  15
GALESBURG      PTCLDY    16  11  79 SE10      30.19F WCI   4
JACKSONVILLE   MOCLDY    23  18  82 SE13      30.22F WCI  11
LACON          CLOUDY    19  12  73 S9        30.26F WCI   9
LAWRENCEVILLE  MOCLDY    25  21  85 SE7       30.39F WCI  17
LITCHFIELD     MOCLDY    21  17  85 SE14      30.26F WCI   8
$$


CITY           SKY/WX    TMP DP  RH WIND       PRES   REMARKS
LINCOLN        PTCLDY    19  12  73 SE8       30.30F WCI   9
MACOMB         PTCLDY    17  13  86 SE14      30.22F WCI   3
MATTOON        CLOUDY    22  14  71 S9        30.31F WCI  12
MT CARMEL AP   MOCLDY    28  23  80 SE7       30.38F WCI  21
OLNEY-NOBLE AP PTCLDY    21  19  93 SE5       30.37F WCI  15
PARIS          CLOUDY    22  17  82 S9        30.35F WCI  11
PEORIA         CLEAR     19   9  65 SE6       30.26F WCI  11
PONTIAC        CLOUDY    21  16  79 S12       30.31R WCI   9
RANTOUL        CLOUDY    22  15  75 S9        30.31F WCI  12
ROBINSON       MOCLDY    24  21  87 SE6       30.39F WCI  17
SPRINGFIELD    PTCLDY    21  15  78 SE15      30.25F WCI   8
TAYLORVILLE    PTCLDY    19  14  79 SE13      30.26F WCI   7
$$

...REGIONAL REPORTS...


CITY           SKY/WX    TMP DP  RH WIND       PRES   REMARKS
CHICAGO O`HARE FLURRIES  20  13  74 S10       30.28F WCI   9
KANKAKEE       FLURRIES N/A N/A N/A SE6       30.32F
MOLINE         PTCLDY    18   9  68 SE10      30.19F WCI   6
MOUNT VERNON   CLEAR     25  19  80 CALM      30.36F
PITTSFIELD     PTCLDY    24  21  87 SE10      30.20F WCI  14
QUINCY         CLEAR     23  19  85 SE12      30.16F WCI  12
ROCKFORD       CLOUDY    18  11  74 SE13      30.26F WCI   5
$$


CITY           SKY/WX    TMP DP  RH WIND       PRES   REMARKS
BURLINGTON     PTCLDY    17  12  80 SE10      30.15F WCI   5
CEDAR RAPIDS   PTCLDY    17  11  77 SE17G23   30.07F WCI   1
DES MOINES     PTCLDY    20  14  77 SE10      30.00F WCI   9
KIRKSVILLE     PTCLDY    24  22  91 S13       30.07F WCI  12
OTTUMWA        PTCLDY    20  15  81 SE14      30.05F WCI   7
ST LOUIS       PTCLDY    28  23  81 SE10      30.24F WCI  19
$$


CITY           SKY/WX    TMP DP  RH WIND       PRES   REMARKS
TERRE HAUTE    MOCLDY    22  17  81 SE7       30.36F WCI  13
EVANSVILLE     MOCLDY    28  22  78 SE5       30.41F WCI  23
INDIANAPOLIS   CLOUDY    22  17  81 S8        30.35F WCI  12
LAFAYETTE      CLOUDY    21  17  84 S5        30.35S WCI  15
MADISON        FLURRIES  16  11  80 S9        30.20F WCI   4
MILWAUKEE      FLURRIES  18  10  71 S8        30.25F WCI   8
$$





USA.gov is the U.S. government's official web portal to all federal, state and local government web resources and services.